Tracking 35331 objects as of 14-Sep-2026
HD Live streaming from Space Station
objects crossing your sky now

SL-12 R/B(2)


SL-12 R/B(2) is no longer on orbit


NORAD ID: 17368
Int'l Code: 1987-010D
Launch date: January 30, 1987
Source: Commonwealth of Independent States (former USSR) (CIS)
Launch site: TYURATAM MISSILE AND SPACE COMPLEX (TTMTR)
Decay date: 1987-02-13

Note: This is a ROCKET BODY
Your satellite tracking list
Your tracking list is empty




NASA's NSSDC Master Catalog

Two Line Element Set (TLE):
1 17368U 87010  D 87044.48494607  .27029476 +58000-4 +11842-3 0  9999
2 17368 051.5688 200.5684 0002903 326.2931 033.8481 16.56208073002204
Source of the keplerian elements: AFSPC